Simultaneous Nadir Overpasses (SNOs) Predictions

Prediction of SNOs between AQUA and NOAA-19 Satellite Orbit:

Table of predicted SNOs for the next 14.0 days since TLE Epoch: 6/18/2021
Index Date (AQUA) Time (AQUA) Lat,Lon (AQUA) SZA (AQUA ) Date (NOAA-19) Time (NOAA-19) Lat,Lon (NOAA-19) SZA (NOAA-19 ) Distance(km) Time Diff (sec)
1 06/20/2021 15:38:34 -78.77, 102.90 123.75 06/20/2021 15:37:48 -78.78, 103.06 123.74 3.47 46
2 06/20/2021 16:28:01 78.78, -89.48 56.26 06/20/2021 16:28:50 78.78, -89.67 56.26 3.97 49
3 06/22/2021 21:12:14 78.61,-159.62 56.05 06/22/2021 21:11:05 78.57,-161.65 56.21 44.97 69
4 06/22/2021 22:01:44 -78.77, 7.16 123.74 06/22/2021 22:01:58 -78.77, 7.03 123.73 2.75 14
5 06/25/2021 03:35:28 78.77, 103.70 56.32 06/25/2021 03:35:08 78.77, 103.87 56.32 3.72 20
6 06/25/2021 04:24:55 -78.80, -88.84 123.64 06/25/2021 04:26:07 -78.79, -88.77 123.68 2.17 72
7 06/27/2021 09:09:11 -78.76,-159.69 123.60 06/27/2021 09:08:18 -78.73,-159.67 123.62 3.88 53
8 06/27/2021 09:58:38 78.77, 7.91 56.41 06/27/2021 09:59:17 78.77, 7.90 56.40 0.38 39
9 06/29/2021 15:32:21 -78.76, 104.51 123.48 06/29/2021 15:32:27 -78.74, 104.50 123.50 2.34 6
10 07/01/2021 21:06:04 78.74,-158.77 56.65 07/01/2021 21:05:35 78.75,-158.68 56.66 2.21 29



Historial Predications of SNOs between AQUA and NOAA-19
